Collingwood, Ontario

2:49 PM EDT on June 28, 2017 (GMT -0400)
Collingwood

Weather History for CWCO - October, 2012

Change the Weather History Date:

Friday, October 5, 2012

  Actual Average (CYBN) Record (CYBN)
Temperature  
Mean Temperature 60 °F -  
Max Temperature 67 °F 60 °F 84 °F (2005)
Min Temperature 52 °F 39 °F 28 °F (2006)
Degree Days  
Heating Degree Days 6    
Growing Degree Days 10 (Base 50)    
Moisture  
Dew Point 46 °F    
Average Humidity 60    
Maximum Humidity 79    
Minimum Humidity 33    
Precipitation  
Precipitation 0.00 in - - ()
Sea Level Pressure  
Sea Level Pressure 29.89 in    
Wind  
Wind Speed 6 mph ()    
Max Wind Speed 10 mph    
Max Gust Speed 20 mph    
Averages and records for this station are not official NWS values.
T = Trace of Precipitation, MM = Missing Value Source: Averaged Metar Reports

Daily Weather History Graph

Daily Weather History Graph

Search for Another Location

Airport or City:

Trip Planner

Search our weather history database for the weather conditions in past years. The results will help you decide how hot, cold, wet, or windy it might be!

Date:

Astronomy

Oct. 05, 2012 Rise Set
Actual Time 7:24 AM EDT 6:53 PM EDT
Civil Twilight 6:55 AM EDT 7:22 PM EDT
Nautical Twilight 6:21 AM EDT 7:55 PM EDT
Astronomical Twilight 5:47 AM EDT 8:29 PM EDT
Moon 10:04 PM EDT (10/5) 12:41 PM EDT (10/5)
Length of Visible Light 12h 27m
Length of Day
11h 29m
Waning Gibbous, 74% of the Moon is Illuminated
Oct 5
Waning Gibbous
Oct 8
Last Quarter
Oct 15
New
Oct 21
First Quarter
Oct 29
Full

Hourly Weather History & Observations

Time (EDT) Temp. Dew Point Humidity Pressure Visibility Wind Dir Wind Speed Gust Speed Precip Events Conditions
12:00 AM 66.4 °F 51.8 °F 59% 29.89 in - SW 5.8 mph - N/A   Unknown
1:00 AM 67.5 °F 51.6 °F 57% 29.88 in - SW 10.4 mph 19.6 mph N/A   Unknown
2:00 AM 67 °F 53 °F 50% 29.88 in - SSW 6.9 mph - -  
2:00 AM 67.1 °F 52.5 °F 59% 29.88 in - SSW 6.9 mph 17.3 mph N/A   Unknown
3:00 AM 64.2 °F 54.5 °F 71% 29.86 in - SW 9.2 mph 18.4 mph N/A   Unknown
4:00 AM 63.0 °F 55.8 °F 77% 29.87 in - SSW 4.6 mph - N/A   Unknown
5:00 AM 63.1 °F 56.5 °F 79% 29.88 in - WSW 3.5 mph - N/A   Unknown
6:00 AM 63.1 °F 56.3 °F 78% 29.88 in - WSW 3.5 mph - N/A   Unknown
7:00 AM 61.3 °F 52.2 °F 72% 29.90 in - West 8.1 mph - N/A   Unknown
8:00 AM 59.5 °F 51.3 °F 74% 29.92 in - West 4.6 mph - N/A   Unknown
9:00 AM 58.8 °F 50.2 °F 73% 29.93 in - West 6.9 mph - N/A   Unknown
10:00 AM 58.3 °F 47.3 °F 67% 29.93 in - West 6.9 mph - N/A   Unknown
11:00 AM 57.9 °F 43.7 °F 59% 29.94 in - West 10.4 mph - N/A   Unknown
12:00 PM 59.7 °F 43.0 °F 54% 29.92 in - West 5.8 mph - N/A   Unknown
1:00 PM 61.9 °F 41.5 °F 47% 29.92 in - West 9.2 mph - N/A   Unknown
2:00 PM 63 °F 41 °F 33% 29.91 in - WSW 6.9 mph - -  
2:00 PM 62.6 °F 41.0 °F 45% 29.91 in - WSW 6.9 mph - N/A   Unknown
3:00 PM 63.0 °F 37.6 °F 39% 29.90 in - WSW 8.1 mph - N/A   Unknown
4:00 PM 61.7 °F 34.7 °F 36% 29.89 in - West 6.9 mph - N/A   Unknown
5:00 PM 61.9 °F 35.8 °F 38% 29.88 in - WSW 5.8 mph - N/A   Unknown
6:00 PM 57.4 °F 35.8 °F 44% 29.88 in - West 5.8 mph - N/A   Unknown
7:00 PM 55.0 °F 41.4 °F 60% 29.90 in - West 5.8 mph - N/A   Unknown
8:00 PM 53 °F 44 °F 62% 29.88 in - WSW 4.6 mph - -  
8:00 PM 53.4 °F 43.7 °F 70% 29.88 in - WSW 4.6 mph - N/A   Unknown
9:00 PM 52.5 °F 43.5 °F 71% 29.88 in - SW 5.8 mph - N/A   Unknown
10:00 PM 52.5 °F 43.7 °F 72% 29.87 in - WSW 8.1 mph - N/A   Unknown
11:00 PM 53.2 °F 43.5 °F 70% 29.84 in - SW 5.8 mph - N/A   Unknown